Temperature
20 21 21 21 20 20 20 20 20 20 20 20 19 19 19 19 19 19 19 19 19 19 19 19 19 19 19 19 19 19 19 19 19 19 19 19 19 19 19 18 18 18 19
21 21 21 21 21 20 20 20 20 20 20 19 19 19 19 19 19 19 19 19 19 19 19 19 19 19 19 19 19 19 19 19 19 19 19 19 19 19 19 18 18 18 18
21 21 21 21 21 20 20 20 20 20 20 20 19 19 19 19 19 19 19 19 19 19 19 19 19 19 19 19 19 19 19 19 19 18 18 18 19 19 19 19 19 19 18
20 21 21 21 20 20 20 20 20 20 20 20 19 19 19 19 19 19 19 19 19 19 19 19 19 19 19 19 19 19 19 19 18 18 18 18 19 19 19 19 19 19 18
20 20 21 20 20 20 20 20 20 20 20 20 20 19 19 19 19 19 19 19 19 19 19 19 19 19 19 19 19 19 19 19 18 18 18 18 19 19 19 19 19 18 18
20 20 21 20 20 20 20 20 20 20 20 20 20 19 19 19 19 19 19 19 19 19 19 19 19 19 18 18 18 18 18 18 18 18 18 18 19 19 19 19 19 18 18
20 20 21 20 20 20 20 20 20 20 20 20 19 19 19 19 19 19 19 19 19 19 19 19 19 19 18 18 18 18 18 18 18 18 18 18 19 19 19 19 18 18 18
20 20 20 20 20 20 20 20 20 20 19 19 19 19 19 19 19 19 19 19 19 19 19 19 19 19 18 18 18 18 18 18 18 18 18 18 18 19 19 18 18 18 18
21 20 21 20 20 20 20 20 20 19 19 19 19 19 19 19 19 19 19 19 19 19 19 19 19 19 19 18 18 18 18 18 18 18 18 18 18 18 18 18 18 18 18
21 21 20 20 20 20 20 20 19 19 19 19 19 19 19 19 19 19 19 19 19 19 19 19 19 19 19 18 18 18 18 18 18 18 18 18 18 18 18 18 18 18 18
21 21 20 20 19 19 19 19 19 19 19 19 19 19 19 19 19 19 19 19 19 19 19 19 19 19 18 18 18 18 18 18 18 18 18 18 18 18 18 18 18 18 18
20 20 20 20 20 19 19 19 19 19 19 19 19 19 19 19 18 18 18 18 18 19 19 19 19 19 19 18 18 18 18 18 18 18 18 18 18 18 18 18 18 18 18
19 20 20 20 20 20 19 19 19 19 19 19 18 18 18 18 18 18 18 18 18 19 19 19 19 19 19 18 18 18 19 18 18 18 18 18 18 18 18 18 18 18 18
19 19 19 20 20 19 19 19 19 19 19 19 19 18 18 18 18 18 18 18 18 18 18 18 18 18 18 18 18 19 19 19 18 18 18 18 18 18 18 18 18 18 18
18 18 19 19 19 19 19 19 19 19 19 19 19 18 18 18 18 18 18 18 18 18 18 18 18 18 18 19 19 19 19 19 19 18 18 18 18 18 18 18 17 17 18
18 18 18 18 18 19 19 19 19 19 19 18 18 18 18 18 18 18 18 18 18 18 18 18 18 18 19 19 19 19 19 19 19 18 18 18 18 18 18 18 18 17 17
17 17 17 17 17 18 18 18 18 18 18 18 18 18 18 18 18 18 18 18 18 18 18 18 18 19 19 19 19 19 19 19 19 19 18 18 18 18 18 18 18 17 17
17 17 17 17 17 17 17 17 18 18 18 18 18 18 18 18 18 18 18 18 18 18 18 18 18 18 19 19 19 19 19 19 19 19 18 18 18 18 18 18 18 18 18
16 16 16 16 16 16 16 17 17 17 17 18 18 18 18 18 18 18 18 18 18 18 18 18 18 18 18 18 19 19 19 19 19 19 19 18 18 18 18 18 18 18 18
15 15 15 15 15 15 16 16 16 17 17 17 17 17 17 18 18 18 18 18 18 18 18 18 18 18 18 18 18 19 19 19 19 19 19 19 18 18 18 18 18 18 18
15 15 15 15 15 15 15 15 15 16 16 16 17 17 17 17 17 17 17 18 18 18 18 18 18 18 18 18 18 18 19 19 19 19 19 19 19 18 18 18 18 18 18
14 14 14 14 14 14 14 14 15 15 15 16 16 16 17 17 17 17 17 17 17 17 17 17 17 17 17 17 17 18 18 18 19 19 18 18 18 18 18 18 18 18 18
13 13 13 13 13 14 14 14 14 14 15 15 16 16 16 16 16 17 17 17 17 17 17 17 17 17 17 17 17 17 17 18 18 18 18 18 18 18 18 18 18 18 18
13 13 13 13 13 13 13 14 14 14 14 14 15 15 16 16 16 16 16 17 17 17 17 17 17 17 17 17 17 17 17 17 18 18 18 18 18 18 18 18 18 18 18
12 13 13 13 13 13 13 13 13 14 14 14 15 15 15 16 16 16 16 16 16 16 17 16 16 17 16 17 17 17 17 17 17 17 17 18 18 18 18 18 18 18 18
12 12 13 13 13 13 13 13 13 13 14 14 14 15 15 15 15 15 16 16 16 16 16 16 16 16 16 16 16 16 16 17 17 17 17 17 17 17 17 17 18 18 18
Wind_Speed
12 15 14 13 12 12 12 11 10 9 8 8 7 6 5 5 4 4 5 5 5 5 5 5 6 7 7 7 7 8 8 8 7 7 8 9 9 9 9 8 6 9 10
16 16 14 13 12 12 11 11 10 9 9 8 7 6 5 4 4 4 4 4 4 4 5 5 5 6 6 6 6 6 7 6 5 4 5 8 9 9 9 11 11 8 8
17 16 15 13 13 12 11 10 10 9 8 8 7 6 5 5 4 4 4 4 4 4 4 4 5 5 5 5 5 5 5 4 4 4 2 5 10 10 9 9 9 8 8
17 16 15 14 13 12 11 10 9 9 8 8 7 6 6 5 5 4 4 4 4 4 4 4 4 4 4 4 4 4 3 3 5 6 5 9 10 10 9 9 9 8 8
14 15 16 14 12 11 10 9 9 8 8 7 7 6 5 5 4 4 3 3 4 4 4 4 4 4 4 4 4 3 2 3 7 5 9 13 12 9 9 9 8 8 8
14 16 15 13 12 11 10 9 8 8 7 7 6 5 5 5 4 4 3 3 3 4 4 4 4 3 4 3 3 2 2 5 7 3 9 12 11 9 9 9 8 8 8
14 16 15 13 12 10 10 9 8 8 7 7 6 6 5 5 4 4 3 4 4 4 4 4 3 3 2 2 2 1 3 6 7 1 10 13 10 8 8 8 8 8 8
14 15 16 14 13 11 11 10 9 9 8 7 7 6 6 5 5 5 4 4 4 4 4 3 3 2 2 1 1 1 4 7 6 2 12 12 9 7 7 7 8 8 8
11 13 15 15 14 13 12 12 11 10 9 8 8 8 7 7 6 6 6 5 5 4 4 3 3 2 2 2 2 3 5 7 8 2 9 11 9 7 7 7 7 7 8
6 7 10 14 15 15 15 15 14 13 11 10 9 9 9 8 8 9 9 8 7 6 5 4 4 3 4 4 4 5 6 8 9 2 12 10 9 7 6 6 6 7 8
7 4 3 3 6 10 14 16 16 14 13 12 11 11 10 11 12 12 12 12 10 8 7 6 6 6 6 7 8 8 8 9 7 7 12 11 9 7 6 6 6 7 7
9 9 8 6 3 0 4 11 13 13 13 13 12 13 13 14 13 12 15 15 13 10 9 9 9 9 10 10 12 12 10 12 7 9 12 12 8 7 6 5 6 6 6
9 9 9 9 8 6 2 3 6 8 10 12 13 14 14 13 9 9 11 13 12 12 11 12 11 11 13 13 11 12 12 9 5 9 13 12 9 7 6 6 6 6 6
9 9 9 8 7 7 6 3 1 3 4 6 10 12 12 6 4 5 7 11 12 11 11 11 11 14 15 14 12 11 10 6 6 11 13 13 9 7 6 6 7 6 6
6 6 7 7 6 6 5 4 3 1 2 5 7 8 9 5 4 4 4 7 9 11 10 6 8 8 7 7 7 6 6 8 8 12 12 13 11 8 7 7 7 7 7
7 6 5 6 5 4 4 4 4 3 3 3 3 6 7 6 4 3 4 3 5 6 8 8 6 5 3 3 3 2 3 5 7 13 14 13 12 10 7 8 8 7 7
8 7 5 5 4 4 5 4 3 3 4 3 3 6 7 6 6 4 4 3 3 6 7 6 6 5 4 4 4 3 2 3 4 10 15 13 13 12 10 9 8 8 8
8 7 6 7 6 5 5 5 3 4 3 4 5 6 7 7 7 4 4 3 3 4 3 3 3 2 3 3 3 4 4 4 4 6 12 14 15 13 13 12 10 9 8
9 8 7 6 6 5 5 4 4 4 3 4 5 5 6 8 8 5 4 3 4 2 2 3 3 2 3 3 4 4 4 5 5 5 6 11 15 16 15 15 13 11 10
10 10 9 7 6 5 5 4 4 4 4 3 4 5 7 7 7 5 3 4 4 3 2 2 2 2 1 2 4 3 4 4 4 5 5 5 12 15 17 16 14 13 12
11 11 10 9 7 5 3 4 4 5 4 4 3 5 6 6 6 5 5 5 5 5 5 4 3 3 2 2 2 2 2 4 5 5 4 3 5 10 17 17 16 14 13
12 12 11 10 9 8 4 4 4 5 5 5 4 4 6 6 6 5 5 5 6 5 6 6 4 3 3 2 2 1 2 2 3 4 4 4 4 5 8 14 15 16 16
12 12 12 10 10 8 7 5 5 4 4 4 4 5 5 5 6 5 5 6 6 6 6 7 7 6 4 3 3 3 3 4 2 3 3 4 4 3 4 5 11 15 17
13 12 12 11 10 9 8 6 6 5 5 5 5 5 5 4 5 6 6 6 7 6 7 8 8 6 6 5 3 3 3 3 3 2 2 3 3 4 4 4 3 7 12
13 12 11 11 10 9 8 7 6 5 5 5 5 5 5 4 4 5 5 6 7 7 7 7 7 7 7 6 5 4 4 2 2 2 2 2 1 1 1 1 2 2 6
11 11 11 10 10 9 8 7 6 6 6 6 6 5 4 3 2 3 3 4 5 6 7 8 8 9 8 8 6 5 4 3 3 3 3 2 2 2 1 1 0 1 4
Wind_Direction
123 122 126 119 113 111 111 118 125 130 132 130 128 126 122 115 103 90 82 72 65 63 59 57 57 60 62 62 59 57 53 51 53 64 71 71 66 58 51 44 64 82 86
123 125 128 123 119 116 114 116 121 125 128 130 130 129 126 123 117 104 95 86 75 69 65 61 63 65 65 66 65 62 56 48 40 51 81 82 72 60 56 57 66 84 86
121 128 131 128 125 122 120 119 120 123 126 128 128 127 128 129 126 113 102 95 89 80 74 69 70 71 69 69 67 61 51 26 356 339 338 106 86 65 61 62 71 81 84
125 137 134 134 131 129 128 126 125 125 126 127 128 129 128 127 124 116 106 101 97 92 88 83 76 76 77 74 70 63 43 348 324 329 52 88 80 70 65 64 71 81 84
126 127 129 139 137 137 136 135 134 134 134 133 132 133 134 134 130 125 118 110 104 100 97 95 91 87 88 84 77 65 21 316 316 345 75 86 78 73 69 67 71 78 84
123 123 134 142 145 146 146 147 148 148 149 150 149 148 144 142 141 140 138 134 122 113 105 101 102 99 98 94 85 59 329 308 310 354 90 94 87 77 73 72 73 76 83
130 131 141 148 153 157 159 161 164 166 167 168 167 165 162 162 162 157 155 149 142 131 117 111 110 113 111 106 94 18 311 307 289 209 104 97 94 85 78 76 76 79 83
133 137 144 156 163 168 173 176 177 179 183 182 179 177 178 180 179 176 170 159 152 141 131 124 126 135 139 145 161 283 301 304 303 91 111 106 104 95 85 80 79 82 84
134 140 153 164 173 180 184 185 187 188 192 192 189 189 190 191 190 189 183 178 171 160 154 152 156 166 179 203 231 260 282 292 297 279 118 113 112 102 94 86 84 86 87
115 143 161 170 177 182 188 192 192 194 197 200 200 199 199 201 203 202 197 189 183 181 182 182 188 197 208 222 234 248 266 281 274 116 110 117 116 111 106 99 96 93 93
35 33 74 151 170 186 186 190 193 196 200 203 207 209 207 212 209 205 209 188 186 193 198 200 205 214 224 229 231 237 250 254 242 119 113 123 124 124 124 120 113 104 101
18 11 18 17 29 352 202 177 189 193 195 204 210 204 209 223 219 206 193 183 188 197 204 210 214 221 231 231 224 228 239 241 208 137 126 130 130 136 139 137 131 122 116
14 14 9 8 3 1 358 163 186 180 189 207 220 208 210 226 216 185 170 178 191 201 209 210 214 225 228 226 206 209 227 231 171 129 135 135 136 143 149 150 144 137 130
15 5 357 359 360 354 352 352 213 183 188 209 222 222 210 218 226 210 189 182 189 199 209 201 209 220 227 225 203 207 205 198 147 126 142 143 144 151 157 158 153 149 144
17 2 352 349 349 348 348 336 321 294 222 218 214 230 210 198 213 226 222 192 192 195 194 210 220 228 222 227 216 210 187 183 163 141 147 153 152 155 162 164 160 158 157
4 354 342 341 339 332 328 325 324 325 312 283 252 241 232 208 207 213 228 212 203 206 188 193 221 242 227 225 236 231 194 182 165 145 152 160 162 162 166 171 167 162 161
349 341 340 323 333 329 318 308 306 289 279 270 256 255 256 227 216 222 224 225 212 220 212 196 223 227 214 211 209 231 211 199 182 160 156 164 169 171 171 171 170 171 171
342 335 331 332 336 328 320 304 286 279 269 255 247 239 245 242 224 216 223 230 240 237 225 192 219 217 220 211 207 208 204 178 212 178 163 169 171 174 177 176 175 177 179
337 332 333 339 329 322 309 291 282 275 258 252 248 239 242 247 239 217 211 212 233 251 241 222 199 207 224 224 228 212 204 179 197 201 194 183 170 168 173 179 179 180 183
342 338 335 331 322 315 309 307 302 285 266 241 238 238 238 242 242 228 210 203 210 220 233 250 208 211 227 233 245 227 203 184 187 197 222 186 168 173 168 172 177 185 190
346 343 334 329 325 319 314 310 304 298 293 278 256 247 241 238 235 224 217 207 207 207 208 218 221 217 226 249 262 283 252 210 204 195 206 199 191 178 163 172 180 180 186
346 342 332 336 334 330 317 303 287 288 284 276 270 258 243 238 233 227 213 208 206 207 207 206 204 207 209 209 196 220 264 286 263 208 189 198 221 181 170 180 184 177 179
347 342 335 335 331 329 327 313 304 299 291 284 279 271 255 240 231 224 217 209 205 200 204 202 198 193 201 210 205 181 178 212 251 271 216 201 210 193 186 197 192 182 178
349 343 340 338 335 334 331 324 319 305 299 296 295 285 273 250 233 221 216 213 210 202 200 205 200 194 191 204 218 219 211 177 171 252 271 228 215 206 197 199 200 184 174
352 349 344 344 343 339 335 329 324 315 307 304 306 302 293 269 247 227 217 214 214 211 203 202 198 197 198 199 200 201 219 224 194 183 241 275 280 251 229 194 172 154 151
356 353 351 351 352 350 343 341 336 327 324 325 322 323 315 302 279 255 230 219 216 210 208 208 203 203 203 203 202 198 191 194 194 189 204 214 236 268 303 338 31 148 140
Height
1534 1536 1538 1540 1541 1543 1544 1546 1548 1549 1551 1552 1554 1555 1556 1557 1558 1559 1560 1561 1561 1562 1562 1563 1563 1563 1564 1564 1564 1564 1564 1565 1565 1564 1564 1564 1564 1564 1563 1563 1563 1563 1563
1534 1537 1539 1541 1542 1544 1546 1547 1549 1550 1551 1553 1554 1556 1557 1558 1559 1559 1560 1561 1562 1562 1563 1563 1564 1564 1564 1565 1565 1565 1566 1566 1566 1566 1566 1566 1565 1565 1565 1564 1564 1564 1564
1535 1538 1540 1542 1544 1545 1547 1548 1550 1551 1552 1554 1555 1556 1557 1558 1559 1560 1561 1561 1562 1563 1563 1564 1564 1565 1565 1566 1566 1566 1567 1567 1567 1567 1567 1567 1567 1566 1566 1565 1565 1565 1565
1537 1539 1541 1543 1545 1546 1548 1549 1550 1552 1553 1554 1555 1556 1557 1558 1559 1560 1561 1561 1562 1563 1563 1564 1564 1565 1565 1566 1566 1567 1568 1568 1569 1569 1568 1568 1568 1567 1567 1566 1566 1566 1566
1540 1541 1542 1544 1545 1547 1548 1550 1551 1552 1553 1554 1556 1557 1558 1559 1559 1560 1561 1562 1562 1563 1563 1564 1565 1565 1566 1566 1567 1568 1568 1569 1569 1569 1569 1569 1569 1568 1568 1567 1567 1567 1567
1542 1542 1544 1545 1546 1548 1549 1550 1551 1552 1553 1555 1556 1557 1558 1559 1559 1560 1561 1562 1562 1563 1563 1564 1564 1565 1566 1566 1567 1568 1569 1569 1570 1570 1570 1570 1570 1569 1569 1568 1568 1568 1568
1543 1543 1545 1546 1547 1548 1549 1550 1551 1552 1553 1554 1555 1556 1557 1558 1559 1560 1561 1561 1562 1563 1563 1564 1564 1565 1565 1566 1567 1568 1569 1570 1570 1571 1570 1570 1570 1570 1570 1569 1569 1569 1569
1544 1544 1545 1547 1547 1548 1549 1550 1551 1552 1553 1554 1555 1556 1557 1558 1559 1560 1560 1561 1562 1562 1563 1563 1564 1564 1565 1566 1567 1568 1569 1569 1570 1572 1571 1571 1571 1571 1570 1570 1570 1570 1570
1545 1545 1545 1546 1547 1548 1549 1550 1551 1552 1553 1554 1554 1555 1556 1557 1558 1559 1560 1560 1561 1562 1562 1563 1563 1564 1565 1565 1566 1567 1568 1569 1570 1571 1571 1571 1571 1571 1571 1570 1570 1571 1571
1546 1546 1545 1545 1546 1547 1548 1549 1550 1551 1552 1553 1554 1554 1555 1556 1557 1558 1559 1559 1560 1561 1561 1562 1563 1563 1564 1565 1566 1567 1568 1569 1570 1571 1570 1571 1571 1571 1571 1571 1571 1571 1572
1546 1546 1546 1546 1546 1546 1546 1547 1548 1549 1550 1551 1552 1553 1554 1555 1556 1557 1557 1558 1559 1560 1560 1561 1562 1563 1564 1564 1565 1567 1568 1568 1569 1570 1570 1571 1571 1571 1571 1571 1571 1572 1572
1544 1545 1545 1545 1545 1545 1546 1546 1547 1547 1548 1549 1550 1551 1552 1553 1554 1555 1556 1557 1558 1558 1559 1560 1561 1562 1563 1564 1565 1566 1567 1568 1569 1569 1570 1570 1570 1570 1571 1571 1571 1572 1573
1544 1544 1544 1544 1544 1544 1544 1544 1544 1545 1546 1547 1548 1549 1550 1551 1553 1554 1554 1556 1556 1557 1557 1558 1559 1560 1561 1562 1564 1566 1567 1568 1569 1569 1569 1570 1570 1570 1570 1571 1571 1572 1573
1544 1543 1542 1542 1543 1542 1542 1543 1542 1543 1544 1545 1546 1547 1548 1549 1550 1551 1553 1553 1554 1555 1555 1556 1558 1559 1561 1562 1564 1565 1566 1568 1569 1568 1569 1569 1569 1569 1569 1570 1571 1572 1573
1544 1542 1541 1541 1540 1540 1540 1540 1539 1540 1541 1542 1543 1544 1545 1546 1547 1549 1551 1552 1552 1553 1554 1556 1557 1558 1560 1562 1564 1565 1566 1567 1567 1567 1568 1568 1568 1568 1568 1569 1570 1571 1572
1543 1542 1540 1539 1538 1537 1536 1536 1536 1536 1537 1538 1539 1541 1542 1543 1544 1545 1547 1548 1550 1551 1553 1554 1555 1557 1559 1561 1562 1563 1564 1565 1566 1566 1567 1567 1567 1567 1567 1568 1569 1570 1571
1543 1541 1539 1537 1536 1535 1534 1533 1533 1533 1534 1534 1535 1536 1537 1538 1540 1541 1543 1544 1546 1548 1550 1552 1553 1555 1557 1558 1560 1561 1563 1564 1565 1565 1565 1566 1566 1566 1567 1567 1568 1569 1570
1542 1540 1538 1536 1534 1532 1531 1530 1529 1529 1529 1529 1529 1531 1531 1533 1535 1537 1538 1539 1542 1544 1546 1548 1550 1552 1554 1556 1557 1559 1561 1562 1564 1565 1564 1564 1565 1565 1566 1567 1567 1568 1569
1541 1538 1536 1533 1531 1529 1528 1527 1526 1525 1525 1525 1525 1526 1526 1528 1529 1531 1533 1535 1538 1540 1542 1544 1546 1548 1551 1553 1555 1556 1558 1559 1561 1563 1563 1563 1563 1564 1565 1566 1566 1567 1568
1539 1537 1534 1531 1529 1527 1525 1524 1523 1522 1522 1521 1521 1521 1522 1523 1525 1526 1528 1530 1532 1535 1537 1539 1542 1545 1547 1549 1552 1554 1555 1557 1558 1560 1561 1562 1562 1563 1563 1565 1566 1566 1567
1537 1534 1532 1529 1527 1524 1522 1520 1519 1518 1517 1517 1517 1517 1518 1518 1520 1521 1523 1525 1527 1529 1532 1534 1538 1540 1543 1546 1549 1550 1552 1554 1556 1557 1559 1560 1561 1562 1562 1563 1564 1565 1566
1535 1532 1529 1526 1524 1522 1519 1517 1516 1515 1513 1513 1513 1513 1513 1514 1515 1516 1518 1519 1522 1524 1527 1529 1533 1536 1539 1542 1545 1547 1549 1551 1552 1554 1555 1557 1559 1560 1560 1561 1562 1563 1564
1533 1530 1527 1524 1521 1518 1516 1514 1513 1511 1510 1509 1509 1509 1509 1510 1510 1512 1513 1515 1517 1519 1521 1524 1527 1531 1534 1537 1540 1543 1545 1546 1548 1550 1551 1553 1555 1557 1558 1559 1560 1561 1562
1532 1528 1524 1521 1518 1515 1513 1511 1510 1508 1507 1506 1506 1505 1506 1506 1506 1507 1509 1511 1512 1514 1516 1519 1522 1526 1528 1531 1535 1538 1541 1542 1545 1546 1548 1549 1551 1553 1555 1556 1558 1560 1560
1531 1527 1523 1519 1516 1513 1511 1509 1507 1505 1504 1503 1503 1502 1502 1502 1503 1503 1504 1506 1508 1510 1511 1514 1517 1520 1522 1525 1529 1532 1535 1538 1540 1542 1543 1545 1547 1549 1551 1553 1555 1556 1558
1531 1527 1523 1519 1515 1512 1509 1507 1505 1503 1502 1501 1500 1499 1499 1499 1499 1499 1500 1501 1503 1505 1507 1509 1512 1515 1517 1520 1523 1526 1529 1533 1535 1538 1540 1542 1543 1545 1547 1548 1550 1552 1554